Flag for Germany Weather past 2 weeks in Bad Oldesloe, Schleswig-Holstein, Germany

Now
50 °F

Fog.


Feels Like: 47 °F
Forecast: 41 / 48 °F
Wind: 7 mph from Southwest

Location: Hamburg-Fuhlsbuettel

Current Time: Apr 26, 2015 at 5:48:28 AM

Latest Report: Apr 26, 2015 at 5:20 AM


Visibility: 2 mi

Pressure: 29.68 "Hg

Humidity: 100%

Dew point: 50 °F

Location of Bad OldesloeLocation

Historic Weather in Bad Oldesloe — Graph

°F

Bad Oldesloe temperature yesterday

Maximum temperature yesterday: 59 °F (at 11:20 AM)
Minimum temperature yesterday: 46 °F (at 1:50 AM)
Average temperature yesterday: 54 °F

Past Weeks' High & Low Weather Summary

 TemperatureHumidityPressure
High70 °F (Apr 15, 3:20 PM)100% (Apr 14, 3:50 AM)30.39 "Hg (Apr 14, 3:50 AM)
Low30 °F (Apr 18, 5:50 AM)32% (Apr 20, 3:20 PM)29.68 "Hg (Apr 25, 10:20 AM)
Average50 °F71%30.11 "Hg
* Reported Apr 11 4:20 AM — Apr 26 4:20 AM, Bad Oldesloe, Weather by CustomWeather, © 2015

Note: Actual official high and low records may vary slightly from our data, if they occured in-between our weather recording intervals... More about our weather records

Advertising

Bad Oldesloe weather history for previous 24 hours

 ConditionsComfort  
Time TempWeatherWind HumidityBarometerVisibility
4:20 AM
Sun, Apr 26
48 °FFog.6 mph94%29.71 "Hg3 mi
3:50 AM50 °FPassing clouds.6 mph100%29.71 "Hg4 mi
3:20 AM52 °FPartly cloudy.6 mph94%29.71 "Hg4 mi
2:50 AM52 °FPartly cloudy.6 mph94%29.71 "Hg5 mi
2:20 AM54 °FPartly cloudy.8 mph94%29.71 "Hg6 mi
1:50 AM52 °FPassing clouds.9 mph100%29.71 "Hg6 mi
1:20 AM54 °FPartly cloudy.8 mph94%29.71 "HgN/A
12:50 AM54 °FPassing clouds.7 mph94%29.71 "HgN/A
12:20 AM54 °FMostly cloudy.9 mph94%29.68 "Hg6 mi
11:20 PM
Sat, Apr 25
54 °FLight rain. Mostly cloudy.7 mph94%29.68 "Hg5 mi
10:50 PM54 °FLight rain. Mostly cloudy.8 mph94%29.68 "Hg6 mi
10:20 PM55 °FLight rain. Partly cloudy.8 mph88%29.68 "HgN/A
9:50 PM54 °FLight rain. Partly cloudy.6 mph94%29.68 "HgN/A
9:20 PM54 °FBroken clouds.6 mph94%29.68 "HgN/A
8:50 PM54 °FLight rain. Broken clouds.6 mph94%29.68 "HgN/A
8:20 PM55 °FLight rain. Broken clouds.7 mph88%29.68 "HgN/A
7:50 PM55 °FLight rain. Partly sunny.8 mph88%29.68 "HgN/A
7:20 PM55 °FLight rain. Partly sunny.9 mph88%29.68 "HgN/A
6:50 PM55 °FLight rain. Broken clouds.12 mph82%29.68 "HgN/A
6:20 PM57 °FBroken clouds.13 mph77%29.68 "Hg10 mi
5:50 PM55 °FLight rain. Mostly cloudy.12 mph88%29.68 "HgN/A
5:20 PM55 °FMostly cloudy.9 mph88%29.68 "HgN/A
4:50 PM55 °FLight rain. Partly sunny.12 mph82%29.68 "HgN/A
4:20 PM55 °FLight rain. Cloudy.13 mph88%29.68 "Hg5 mi
3:50 PM54 °FLight rain. Partly sunny.16 mph88%29.68 "Hg5 mi
3:20 PM55 °FLight rain. Partly sunny.14 mph82%29.68 "Hg5 mi
2:50 PM55 °FLight rain. Broken clouds.12 mph88%29.71 "Hg5 mi
2:20 PM55 °FLight rain. Partly sunny.7 mph88%29.68 "Hg5 mi
1:50 PM55 °FLight rain. Mostly cloudy.7 mph88%29.71 "Hg4 mi
1:20 PM55 °FLight rain. Fog.7 mph88%29.71 "Hg3 mi
12:50 PM54 °FLight rain. Partly sunny.13 mph94%29.74 "Hg3 mi
12:20 PM55 °FLight rain. Partly sunny.9 mph82%29.71 "Hg4 mi
11:50 AM57 °FLight rain. Partly sunny.8 mph77%29.71 "Hg4 mi
11:20 AM59 °FBroken clouds.9 mph68%29.71 "HgN/A
10:50 AM57 °FBroken clouds.10 mph72%29.71 "HgN/A
10:20 AM57 °FMore clouds than sun.3 mph67%29.68 "HgN/A
9:50 AM55 °FBroken clouds.9 mph72%29.74 "Hg6 mi
9:20 AM57 °FPartly sunny.9 mph63%29.74 "Hg6 mi
8:50 AM55 °FPartly sunny.13 mph67%29.74 "Hg5 mi
8:20 AM55 °FPartly sunny.8 mph63%29.71 "Hg6 mi
7:50 AM54 °FBroken clouds.9 mph72%29.71 "HgN/A
7:20 AM54 °FSunny.6 mph72%29.71 "Hg10 mi
6:50 AM50 °FClear.5 mph82%29.71 "Hg10 mi
6:20 AM50 °FClear.6 mph76%29.71 "Hg10 mi
5:20 AM52 °FClear.6 mph72%29.71 "Hg10 mi
Weather by CustomWeather, © 2015

See weather overviewHow to use our weather pages